Location: Drawsko Pomorskie
(53.5317°N, 15.8111°E)
Time: 05:44:13
(UTC+01:00)

ISS - Pass Details

Date: 25 January 2019
Orbit: 403 x 411 km, 51.6° (Epoch: 21 February)

Event Time Altitude Azimuth Distance (km) Brightness Sun altitude
Rises 18:26:54 0° 221° (SW) 2,328 0.8 -17.7°
Reaches altitude 10° 18:29:12 10° 207° (SSW) 1,472 -0.5 -18.1°
Enters shadow 18:31:39 24° 159° (SSE) 906 -2.2 -18.4°
